Regional Weather Roundup
Issued by NWS

Home | Current Version | Previous Version | Text Only | Print | Product List | Glossary On
Versions: 1 2 3 4 5 6 7 8 9 10 11 12 13 14 15 16 17 18 19 20 21 22 23 24 25 26 27 28 29 30 31 32 33 34 35 36 37 38 39 40 41 42 43 44 45 46 47 48 49 50
000
ASUS42 KFFC 030003
RWRGA
WEATHER ROUNDUP FOR GEORGIA
NATIONAL WEATHER SERVICE PEACHTREE CITY GA
800 PM EDT MON MAY 02 2016

NOTE: "FAIR" INDICATES FEW OR NO CLOUDS BELOW 12,000 FEET WITH NO
SIGNIFICANT WEATHER AND/OR OBSTRUCTIONS TO VISIBILITY.

* = USE WITH CAUTION. THE STATIONS MARKED WITH AN ASTERISK MAY NOT
REPORT WEATHER SUCH AS PRECIPITATION, FOG, OR THUNDER AND ARE NOT
QUALITY CONTROLLED BY NWS.

THE REMARK "TC" DENOTES TEMPERATURE READING IN DEGREES CELSIUS.

GAZ001>058-030100-
NORTH GEORGIA

CITY           SKY/WX    TMP DP  RH WIND       PRES   REMARKS
ATLANTA        CLOUDY    77  62  59 SW7       29.92R
6HR MIN TEMP:  77; 6HR MAX TEMP:  83;

ATHENS         MOCLDY    74  68  81 SW5       29.90S
6HR MIN TEMP:  74; 6HR MAX TEMP:  87; 6HR PCP: TRACE;

CHAMBLEE       CLOUDY    77  63  61 SW9       29.91R
6HR MIN TEMP:  77; 6HR MAX TEMP:  84;

PEACHTREE CITY CLOUDY    75  66  73 CALM      29.93R
6HR MIN TEMP:  75; 6HR MAX TEMP:  83;

ROME           LGT RAIN  67  63  87 S5        29.92S
6HR MIN TEMP:  67; 6HR MAX TEMP:  84; 6HR PCP:  0.01;

WEST ATLANTA   CLOUDY    77  62  59 SW5       29.91R
6HR MIN TEMP:  77; 6HR MAX TEMP:  83;

GAINESVILLE    CLOUDY    75  61  61 SW8       29.93S
6HR MIN TEMP:  75; 6HR MAX TEMP:  84;

CARTERSVILLE   CLOUDY    73  62  68 NW8       29.92R
6HR MIN TEMP:  73; 6HR MAX TEMP:  82;



CITY           SKY/WX    TMP DP  RH WIND       PRES   REMARKS
DALTON*        CLOUDY    63  63 100 N3        29.92F
LAWRENCEVILLE* CLEAR     77  63  61 SW7       29.92R
KENNESAW*      CLOUDY    77  61  57 W7        29.88R
CANTON*        CLOUDY    75  54  46 W5        29.93S
BLAIRSVILLE*   LGT RAIN N/A N/A N/A MISG      29.95R
$$

GAZ059>098-102>109-030100-
CENTRAL GEORGIA

CITY           SKY/WX    TMP DP  RH WIND       PRES   REMARKS
AUGUSTA-BUSH   CLOUDY    71  68  90 SE14      29.93R THUNDER
6HR MIN TEMP:  70; 6HR MAX TEMP:  89; 6HR PCP:  0.56;

AUGUSTA-DANIEL CLOUDY    73  68  84 SE10      29.94R
6HR MIN TEMP:  72; 6HR MAX TEMP:  88; 6HR PCP:  0.52;

COLUMBUS       CLOUDY    77  65  66 W8        29.93R
6HR MIN TEMP:  77; 6HR MAX TEMP:  83;

MACON          CLOUDY    79  69  71 CALM      29.92R
6HR MIN TEMP:  78; 6HR MAX TEMP:  87; 6HR PCP:  0.02;



CITY           SKY/WX    TMP DP  RH WIND       PRES   REMARKS
LAGRANGE*      CLOUDY    76  71  85 W5        29.94S
SYLVANIA*      CLOUDY    71  70  97 SE7       29.96F
MILLEDGEVILLE* CLOUDY    75  70  83 CALM      29.92R
$$

GAZ099>101-110>166-030100-
SOUTH GEORGIA

CITY           SKY/WX    TMP DP  RH WIND       PRES   REMARKS
SAVANNAH       LGT RAIN  75  71  87 CALM      29.97R
6HR MIN TEMP:  75; 6HR MAX TEMP:  88; 6HR PCP:  0.15;

VALDOSTA       PTCLDY    77  70  79 S3        29.94S
6HR MIN TEMP:  73; 6HR MAX TEMP:  86; 6HR PCP:  0.26;

ALMA           CLOUDY    72  71  97 NE3       29.95R FOG
6HR MIN TEMP:  71; 6HR MAX TEMP:  89; 6HR PCP:  0.49;

ST SIMONS      CLOUDY    76  73  91 SE7       29.95S
6HR MIN TEMP:  76; 6HR MAX TEMP:  82;

ALBANY         CLOUDY    75  66  73 S5        29.96R
BRUNSWICK      CLOUDY    81  73  78 S6        29.96R


CITY           SKY/WX    TMP DP  RH WIND       PRES   REMARKS
BAINBRIDGE*    PTCLDY    77  70  78 CALM      29.94S
MOULTRIE*      CLOUDY    75  64  69 NW3       29.96R
VIDALIA*       TSTM      72  68  88 SE8G26    29.98R
WAYCROSS*      CLOUDY    76  70  82 N5        29.95R
DOUGLAS*       CLOUDY    75  73  94 CALM      29.97R
$$



USA.gov is the U.S. government's official web portal to all federal, state and local government web resources and services.